{"data":{"norad_id":87878,"epoch":"2026-05-20T14:24:55.241568Z","epoch_age_seconds":451336,"freshness":"STALE","line1":"1 87878U          26140.60063937  .00001671  00000+0  52151-3 0  9996","line2":"2 87878  99.1714 276.4945 0036099 157.5429 202.7348 14.41912577634187","mean_motion":14.41912577,"eccentricity":0.0036099,"inclination_deg":99.1714,"raan_deg":276.4945,"arg_perigee_deg":157.5429,"mean_anomaly_deg":202.7348,"bstar":0.00052151,"rev_number":63418,"period_min":99.867358324596,"perigee_km":726.44653715184,"apogee_km":777.92604524966,"semimajor_km":7130.3232912007,"source":"CELESTRAK","updated_at":"2026-05-25T13:38:11.680884Z"}}